Weather History for KPOV - August, 2014

Change the Weather History Date:

Saturday, August 30, 2014

  Actual Average (KCAK) Record (KCAK)
Temperature  
Mean Temperature 72 °F 69 °F  
Max Temperature 85 °F 79 °F 98 °F (1953)
Min Temperature 59 °F 59 °F 40 °F (1934)
Degree Days  
Heating Degree Days 0 1  
Month to date heating degree days 9  
Since 1 June heating degree days 64  
Since 1 July heating degree days 15  
Cooling Degree Days 7 5  
Month to date cooling degree days 181  
Year to date cooling degree days 580  
Since 1 June cooling degree days 538  
Growing Degree Days 22 (Base 50)    
Moisture  
Dew Point 62 °F    
Average Humidity 69    
Maximum Humidity 100    
Minimum Humidity 45    
Precipitation  
Precipitation 0.00 in 0.11 in - ()
Month to date precipitation 3.45  
Year to date precipitation 27.09  
Snow  
Snow 0.00 in 0.00 in - ()
Month to date snowfall 0.0  
Since 1 June snowfall 0.0  
Since 1 July snowfall 0.0  
Snow Depth -    
Sea Level Pressure  
Sea Level Pressure 30.06 in    
Wind  
Wind Speed 3 mph (SSW)    
Max Wind Speed 10 mph    
Max Gust Speed 23 mph    
Visibility 8 miles    
Events      
T = Trace of Precipitation, MM = Missing Value Source: NWS Daily Summary

Daily Weather History Graph

Daily Weather History Graph

Search for Another Location

Airport or City:

Trip Planner

Search our weather history database for the weather conditions in past years. The results will help you decide how hot, cold, wet, or windy it might be!

Date:

Astronomy

Aug. 30, 2014 Rise Set
Actual Time 6:49 AM EDT 8:00 PM EDT
Civil Twilight 6:20 AM EDT 8:29 PM EDT
Nautical Twilight 5:46 AM EDT 9:03 PM EDT
Astronomical Twilight 5:11 AM EDT 9:38 PM EDT
Moon 11:38 AM EDT (8/30) 10:31 PM EDT (8/30)
Length of Visible Light 14h 08m
Length of Day
13h 11m
Waxing Crescent, 23% of the Moon is Illuminated
Aug 30
Waxing Crescent
Sep 2
First Quarter
Sep 8
Full
Sep 15
Last Quarter
Sep 24
New

Hourly Weather History & Observations

Time (EDT) Temp. Heat Index Dew Point Humidity Pressure Visibility Wind Dir Wind Speed Gust Speed Precip Events Conditions
12:00 AM 60.8 °F - 60.8 °F 100% 30.11 in 10.0 mi Calm Calm - N/A   Unknown
12:20 AM 60.8 °F - 58.3 °F 91% 30.11 in 10.0 mi East 3.5 mph - N/A   Unknown
12:59 AM 60.8 °F - 58.3 °F 91% 30.11 in 10.0 mi Calm Calm - N/A   Unknown
1:20 AM 62.4 °F - 56.5 °F 81% 30.11 in 10.0 mi Calm Calm - N/A   Unknown
1:40 AM 60.8 °F - 58.3 °F 91% 30.11 in 10.0 mi Calm Calm - N/A   Unknown
2:00 AM 61.9 °F - 57.0 °F 84% 30.11 in 10.0 mi East 3.5 mph - N/A   Unknown
2:20 AM 59.0 °F - - N/A% 30.10 in 10.0 mi East 3.5 mph - N/A   Unknown
2:40 AM 59.2 °F - - N/A% 30.10 in 10.0 mi Calm Calm - N/A   Unknown
3:00 AM 60.1 °F - 57.0 °F 90% 30.09 in 7.0 mi Calm Calm - N/A   Unknown
3:20 AM 60.8 °F - 56.5 °F 86% 30.09 in 7.0 mi Calm Calm - N/A   Unknown
3:40 AM 61.7 °F - 55.9 °F 81% 30.09 in 10.0 mi Calm Calm - N/A   Unknown
4:00 AM 60.3 °F - 57.6 °F 91% 30.08 in 10.0 mi ESE 3.5 mph - N/A   Unknown
4:20 AM 60.8 °F - 56.8 °F 87% 30.08 in 10.0 mi ESE 3.5 mph - N/A   Unknown
4:40 AM 62.1 °F - 55.8 °F 80% 30.08 in 10.0 mi ESE 3.5 mph - N/A   Unknown
4:59 AM 61.9 °F - 55.8 °F 80% 30.08 in 10.0 mi SE 3.5 mph - N/A   Unknown
5:20 AM 62.6 °F - 55.6 °F 78% 30.08 in 10.0 mi Calm Calm - N/A   Unknown
5:39 AM 60.1 °F - 57.7 °F 92% 30.08 in 10.0 mi Calm Calm - N/A   Unknown
6:00 AM 61.2 °F - 57.2 °F 87% 30.08 in 10.0 mi Calm Calm - N/A   Unknown
6:20 AM 61.3 °F - 57.4 °F 87% 30.08 in 10.0 mi Calm Calm - N/A   Unknown
6:40 AM 60.8 °F - 58.3 °F 91% 30.08 in 10.0 mi Calm Calm - N/A   Unknown
6:59 AM 61.2 °F - 58.3 °F 90% 30.09 in 10.0 mi Calm Calm - N/A   Unknown
7:20 AM 61.9 °F - 58.1 °F 87% 30.09 in 10.0 mi Calm Calm - N/A   Unknown
7:40 AM 62.8 °F - 58.6 °F 86% 30.09 in 10.0 mi Calm Calm - N/A   Unknown
8:00 AM 63.7 °F - 59.0 °F 85% 30.10 in 10.0 mi Calm Calm - N/A   Unknown
8:20 AM 65.7 °F - 59.9 °F 82% 30.10 in 7.0 mi Calm Calm - N/A   Unknown
8:40 AM 67.3 °F - 61.5 °F 82% 30.10 in 7.0 mi Calm Calm - N/A   Unknown
9:00 AM 69.1 °F - 63.0 °F 81% 30.10 in 10.0 mi Calm Calm - N/A   Unknown
9:20 AM 70.3 °F - 64.2 °F 81% 30.09 in 10.0 mi Calm Calm - N/A   Unknown
9:40 AM 72.7 °F - 65.3 °F 78% 30.09 in 10.0 mi South 3.5 mph - N/A   Unknown
9:59 AM 75.0 °F - 66.9 °F 76% 30.09 in 10.0 mi Calm Calm - N/A   Unknown
10:20 AM 76.5 °F - 67.8 °F 75% 30.09 in 7.0 mi South 4.6 mph - N/A   Unknown
11:00 AM 79.2 °F - 68.9 °F 71% 30.08 in 7.0 mi SW 5.8 mph - N/A   Unknown
11:20 AM 80.6 °F 83.8 °F 69.6 °F 69% 30.08 in 7.0 mi SSW 6.9 mph - N/A   Unknown
11:40 AM 81.1 °F 84.5 °F 69.8 °F 68% 30.08 in 7.0 mi SSW 4.6 mph - N/A   Unknown
12:00 PM 82.2 °F 86.0 °F 69.8 °F 66% 30.08 in 7.0 mi SW 8.1 mph - N/A   Unknown
12:20 PM 83.1 °F 86.6 °F 68.7 °F 62% 30.07 in 7.0 mi SW 5.8 mph - N/A   Unknown
12:40 PM 82.6 °F 85.3 °F 67.3 °F 60% 30.07 in 7.0 mi SW 9.2 mph - N/A   Unknown
1:00 PM 81.7 °F 83.6 °F 65.5 °F 58% 30.07 in 7.0 mi SSW 8.1 mph - N/A   Unknown
1:20 PM 83.5 °F 85.5 °F 66.0 °F 55% 30.06 in 7.0 mi SW 4.6 mph - N/A   Unknown
1:40 PM 84.2 °F 84.8 °F 61.9 °F 47% 30.06 in 7.0 mi SW 9.2 mph 20.7 mph N/A   Unknown
2:00 PM 84.7 °F 85.4 °F 62.6 °F 47% 30.05 in 7.0 mi SW 10.4 mph - N/A   Unknown
2:20 PM 85.3 °F 86.1 °F 62.8 °F 47% 30.05 in 10.0 mi SW 6.9 mph - N/A   Unknown
2:40 PM 84.7 °F 85.4 °F 62.6 °F 47% 30.04 in 10.0 mi SW 9.2 mph 19.6 mph N/A   Unknown
3:00 PM 85.6 °F 86.6 °F 63.5 °F 47% 30.04 in 7.0 mi SW 8.1 mph - N/A   Unknown
3:20 PM 85.8 °F 86.3 °F 62.2 °F 45% 30.03 in 7.0 mi SW 10.4 mph 20.7 mph N/A   Unknown
3:40 PM 85.8 °F 86.8 °F 63.7 °F 47% 30.03 in 7.0 mi SW 8.1 mph - N/A   Unknown
4:00 PM 84.2 °F 85.0 °F 62.8 °F 48% 30.03 in 7.0 mi SW 6.9 mph 23.0 mph N/A   Unknown
4:20 PM 85.3 °F 86.4 °F 63.5 °F 48% 30.03 in 10.0 mi SW 10.4 mph 18.4 mph N/A   Unknown
4:40 PM 84.6 °F 85.4 °F 62.8 °F 48% 30.02 in 7.0 mi SW 9.2 mph 18.4 mph N/A   Unknown
5:00 PM 83.5 °F 84.7 °F 63.7 °F 51% 30.02 in 7.0 mi SSW 4.6 mph - N/A   Unknown
5:20 PM 84.9 °F 86.1 °F 63.9 °F 49% 30.01 in 7.0 mi SW 9.2 mph - N/A   Unknown
5:40 PM 84.0 °F 85.2 °F 63.7 °F 50% 30.00 in 10.0 mi SSW 8.1 mph - N/A   Unknown
6:00 PM 82.9 °F 84.4 °F 64.0 °F 53% 30.00 in 7.0 mi SW 3.5 mph - N/A   Unknown
6:20 PM 83.8 °F 85.1 °F 64.0 °F 51% 29.99 in 7.0 mi South 4.6 mph 16.1 mph N/A   Unknown
6:40 PM 83.1 °F 84.6 °F 64.4 °F 53% 29.99 in 7.0 mi SSW 3.5 mph - N/A   Unknown
7:00 PM 82.6 °F 84.1 °F 64.6 °F 54% 29.99 in 7.0 mi SW 4.6 mph - N/A   Unknown
7:20 PM 81.9 °F 83.4 °F 64.2 °F 55% 29.99 in 7.0 mi SSW 3.5 mph - N/A   Unknown
7:40 PM 81.5 °F 82.9 °F 64.0 °F 55% 29.99 in 7.0 mi SSW 3.5 mph - N/A   Unknown
7:59 PM 80.6 °F 82.2 °F 64.0 °F 57% 30.00 in 7.0 mi SSW 3.5 mph - N/A   Unknown
8:20 PM 79.3 °F - 64.4 °F 60% 30.00 in 7.0 mi Calm Calm - N/A   Unknown
8:40 PM 79.0 °F - 64.4 °F 61% 30.00 in 7.0 mi Calm Calm - N/A   Unknown
8:59 PM 78.8 °F - 64.6 °F 62% 30.01 in 7.0 mi Calm Calm - N/A   Unknown
9:40 PM 78.1 °F - 65.3 °F 65% 30.02 in 5.0 mi Calm Calm - N/A   Haze
10:00 PM 78.1 °F - 65.3 °F 65% 30.02 in 10.0 mi Calm Calm - N/A   Unknown
10:20 PM 78.1 °F - 65.5 °F 65% 30.02 in 7.0 mi South 3.5 mph - N/A   Unknown
10:39 PM 77.4 °F - 65.8 °F 67% 30.02 in 7.0 mi Calm Calm - N/A   Unknown
11:00 PM 76.8 °F - 66.0 °F 69% 30.03 in 7.0 mi Calm Calm - N/A   Unknown
11:20 PM 77.0 °F - 65.8 °F 68% 30.03 in 7.0 mi SW 3.5 mph - N/A   Unknown
11:40 PM 77.2 °F - 66.0 °F 68% 30.03 in 10.0 mi Calm Calm - N/A   Unknown
11:59 PM 77.0 °F - 66.0 °F 69% 30.03 in 7.0 mi SW 4.6 mph - N/A   Unknown